Location: Karcze
(52.0945°N, 22.4786°E)
Time: 08:27:42
(UTC+00:00)

Tiros 1 - All Passes

Search period start: 24 July 2021 00:00
Search period end: 03 August 2021 00:00
Orbit: 630 x 663 km, 48.4° (Epoch: 23 July)

Date Brightness Start Highest point End Pass type
(mag) Time Alt. Az. Time Alt. Az. Time Alt. Az.
24 Jul - 00:27:37 10° W 00:31:52 35° SSW 00:36:04 10° SE visible
24 Jul - 02:11:07 10° WSW 02:13:05 13° SW 02:15:03 10° SSW daylight
24 Jul - 19:48:21 10° SSW 19:52:23 28° SSE 19:56:23 10° E visible
24 Jul - 21:29:27 10° WSW 21:34:03 52° S 21:38:35 10° E visible
24 Jul - 23:11:23 10° W 23:15:54 48° SSW 23:20:23 10° ESE visible
25 Jul - 00:53:47 10° W 00:57:27 23° SSW 01:01:06 10° SSE visible
25 Jul - 18:33:41 10° S 18:36:40 17° SE 18:39:37 10° ESE daylight
25 Jul - 20:13:37 10° SW 20:18:02 41° SSE 20:22:26 10° E visible
25 Jul - 21:55:15 10° WSW 21:59:52 55° S 22:04:25 10° ESE visible
25 Jul - 23:37:20 10° W 23:41:39 36° SSW 23:45:53 10° SE visible
26 Jul - 01:20:38 10° WSW 01:22:54 14° SW 01:25:10 10° S visible
26 Jul - 18:58:11 10° SSW 19:02:09 27° SSE 19:06:07 10° E daylight
26 Jul - 20:39:13 10° WSW 20:43:48 51° S 20:48:21 10° E visible
26 Jul - 22:21:08 10° W 22:25:40 49° S 22:30:10 10° ESE visible
27 Jul - 00:03:29 10° W 00:07:15 24° SSW 00:10:59 10° SSE visible
27 Jul - 17:43:38 10° S 17:46:27 16° SE 17:49:15 10° ESE daylight
27 Jul - 19:23:23 10° SW 19:27:48 39° SSE 19:32:11 10° E visible
27 Jul - 21:05:00 10° WSW 21:09:37 55° S 21:14:12 10° ESE visible
27 Jul - 22:47:04 10° W 22:51:24 38° SSW 22:55:42 10° SE visible
28 Jul - 00:30:11 10° WSW 00:32:42 15° SW 00:35:13 10° S visible
28 Jul - 18:08:01 10° SSW 18:11:56 26° SSE 18:15:50 10° E daylight
28 Jul - 19:48:58 10° WSW 19:53:34 51° S 19:58:07 10° E visible
28 Jul - 21:30:52 10° W 21:35:26 51° S 21:39:57 10° ESE visible
28 Jul - 23:13:10 10° W 23:17:02 26° SSW 23:20:52 10° SSE visible
29 Jul - 16:53:37 10° S 16:56:15 15° SE 16:58:52 10° ESE daylight
29 Jul - 18:33:10 10° SW 18:37:34 38° SSE 18:41:56 10° E daylight
29 Jul - 20:14:44 10° WSW 20:19:22 56° S 20:23:58 10° ESE visible
29 Jul - 21:56:48 10° W 22:01:11 39° SSW 22:05:32 10° SE visible
29 Jul - 23:39:46 10° WSW 23:42:31 16° SW 23:45:15 10° S visible
30 Jul - 17:17:52 10° SSW 17:21:42 25° SSE 17:25:33 10° E daylight
30 Jul - 18:58:43 10° WSW 19:03:19 50° S 19:07:52 10° E visible
30 Jul - 20:40:35 10° W 20:45:11 52° S 20:49:44 10° ESE visible
30 Jul - 22:22:52 10° W 22:26:50 27° SSW 22:30:44 10° SSE visible
31 Jul - 16:03:37 10° S 16:06:03 14° SE 16:08:28 10° ESE daylight
31 Jul - 17:42:57 10° SW 17:47:20 37° SSE 17:51:40 10° E daylight
31 Jul - 19:24:28 10° WSW 19:29:07 56° S 19:33:44 10° E visible
31 Jul - 21:06:31 10° W 21:10:57 41° SSW 21:15:20 10° SE visible
31 Jul - 22:49:22 10° WSW 22:52:19 17° SW 22:55:15 10° S visible
01 Aug - 16:27:42 10° SSW 16:31:29 24° SSE 16:35:15 10° E daylight
01 Aug - 18:08:28 10° WSW 18:13:04 49° SSE 18:17:37 10° E daylight
01 Aug - 19:50:19 10° W 19:54:56 53° S 19:59:31 10° ESE visible
01 Aug - 21:32:34 10° W 21:36:36 28° SSW 21:40:36 10° SSE visible
02 Aug - 15:13:40 10° SSE 15:15:50 13° SE 15:18:01 10° ESE daylight
02 Aug - 16:52:44 10° SW 16:57:06 35° SSE 17:01:26 10° E daylight
02 Aug - 18:34:12 10° WSW 18:38:52 55° S 18:43:29 10° E daylight
02 Aug - 20:16:14 10° W 20:20:43 42° SSW 20:25:08 10° SE visible
02 Aug - 21:58:59 10° WSW 22:02:06 18° SW 22:05:13 10° S visible
